RYR1962 LDZD-EDJA

Flight info

Callsign RYR1962
Flight time 0h 54m
Altitude 36000
Route RAVNA DCT NAKIT DCT PEVAL DCT BABAG DCT NIVAS DCT NAXAV DCT TISAX DCT IVKAL T102 SUDUX L12 MOGTI P66 KPT KPT1D
Aircraft B738/M-SDE2E3FGHIRWXY/LB1

Departure

Time 2026-05-05 16:32
Airport Zadar Airport (LDZD)

Arrival

Time 2026-05-05 17:26
Airport Memmingen Allgau Airport (EDJA)
Time Latitude Longitude Altitude Speed Heading
2026-05-05 16:17 44.09672 15.35435 299 ft 0 kts 326°
2026-05-05 16:27 44.09668 15.35439 299 ft 4 kts 327°
2026-05-05 16:27 44.09645 15.35457 306 ft 4 kts 322°
2026-05-05 16:28 44.09634 15.35479 302 ft 3 kts 281°
2026-05-05 16:28 44.09631 15.35504 304 ft 4 kts 286°
2026-05-05 16:28 44.09615 15.35542 307 ft 4 kts 347°
2026-05-05 16:28 44.09608 15.35543 309 ft 0 kts 360°
2026-05-05 16:30 44.09609 15.35543 309 ft 1 kts 360°
2026-05-05 16:30 44.09631 15.35543 306 ft 6 kts 359°
2026-05-05 16:30 44.09693 15.35541 299 ft 12 kts 358°
2026-05-05 16:31 44.09796 15.35537 302 ft 17 kts 359°
2026-05-05 16:31 44.09917 15.35558 310 ft 18 kts 42°
2026-05-05 16:31 44.10002 15.35680 308 ft 17 kts 46°
2026-05-05 16:31 44.10074 15.35690 308 ft 11 kts 316°
2026-05-05 16:32 44.10274 15.35420 306 ft 86 kts 315°
2026-05-05 16:32 44.10932 15.34530 308 ft 173 kts 315°
2026-05-05 16:32 44.11841 15.33294 1140 ft 184 kts 316°
2026-05-05 16:32 44.12783 15.32082 2260 ft 185 kts 319°
2026-05-05 16:33 44.13798 15.30826 3223 ft 211 kts 314°
2026-05-05 16:33 44.14912 15.29353 3605 ft 233 kts 314°
2026-05-05 16:33 44.16118 15.27757 4117 ft 242 kts 314°
2026-05-05 16:33 44.17339 15.26040 4526 ft 259 kts 308°
2026-05-05 16:34 44.18497 15.24076 5249 ft 264 kts 306°
2026-05-05 16:34 44.19624 15.22086 6287 ft 261 kts 305°
2026-05-05 16:34 44.20748 15.20092 7168 ft 263 kts 306°
2026-05-05 16:34 44.21888 15.18075 8033 ft 266 kts 305°
2026-05-05 16:35 44.23027 15.16069 8872 ft 269 kts 305°
2026-05-05 16:35 44.24212 15.13987 9773 ft 272 kts 305°
2026-05-05 16:35 44.25383 15.11935 10448 ft 281 kts 305°
2026-05-05 16:35 44.26656 15.09701 10636 ft 307 kts 306°
2026-05-05 16:36 44.28036 15.07281 10898 ft 328 kts 306°
2026-05-05 16:36 44.29482 15.04753 11496 ft 337 kts 306°
2026-05-05 16:36 44.30974 15.02151 12264 ft 341 kts 306°
2026-05-05 16:36 44.32442 14.99593 13037 ft 344 kts 306°
2026-05-05 16:37 44.33947 14.96967 13785 ft 348 kts 306°
2026-05-05 16:37 44.35471 14.94307 14442 ft 353 kts 306°
2026-05-05 16:37 44.37011 14.91615 15131 ft 356 kts 306°
2026-05-05 16:37 44.38562 14.88901 15815 ft 359 kts 306°
2026-05-05 16:38 44.40129 14.86156 16490 ft 363 kts 306°
2026-05-05 16:38 44.41713 14.83377 17143 ft 367 kts 306°
2026-05-05 16:38 44.43314 14.80566 17761 ft 372 kts 306°
2026-05-05 16:38 44.44933 14.77719 18395 ft 376 kts 306°
2026-05-05 16:39 44.46563 14.74852 18982 ft 378 kts 306°
2026-05-05 16:39 44.48204 14.71964 19592 ft 380 kts 306°
2026-05-05 16:39 44.49856 14.69053 20177 ft 383 kts 306°
2026-05-05 16:39 44.51517 14.66123 20758 ft 385 kts 306°
2026-05-05 16:40 44.53188 14.63171 21336 ft 388 kts 306°
2026-05-05 16:40 44.54869 14.60199 21876 ft 391 kts 306°
2026-05-05 16:40 44.56561 14.57203 22412 ft 393 kts 306°
2026-05-05 16:40 44.58265 14.54185 22936 ft 396 kts 306°
2026-05-05 16:41 44.59979 14.51144 23475 ft 399 kts 306°
2026-05-05 16:41 44.61703 14.48083 23918 ft 401 kts 305°
2026-05-05 16:41 44.63439 14.44998 24364 ft 404 kts 305°
2026-05-05 16:41 44.65181 14.41897 24799 ft 406 kts 305°
2026-05-05 16:42 44.66932 14.38779 25222 ft 408 kts 305°
2026-05-05 16:42 44.68700 14.35625 25544 ft 413 kts 305°
2026-05-05 16:42 44.70481 14.32444 25958 ft 415 kts 305°
2026-05-05 16:42 44.72266 14.29255 26418 ft 415 kts 305°
2026-05-05 16:43 44.74053 14.26058 26829 ft 417 kts 305°
2026-05-05 16:43 44.75853 14.22836 27192 ft 420 kts 305°
2026-05-05 16:43 44.77661 14.19593 27550 ft 422 kts 305°
2026-05-05 16:43 44.79477 14.16332 27931 ft 424 kts 305°
2026-05-05 16:44 44.81306 14.13046 28234 ft 428 kts 305°
2026-05-05 16:44 44.83144 14.09736 28570 ft 430 kts 305°
2026-05-05 16:44 44.84990 14.06411 28931 ft 432 kts 305°
2026-05-05 16:44 44.86819 14.03111 29281 ft 434 kts 305°
2026-05-05 16:45 44.88676 13.99759 29690 ft 434 kts 305°
2026-05-05 16:45 44.90528 13.96413 30187 ft 431 kts 305°
2026-05-05 16:45 44.92394 13.93037 30662 ft 429 kts 305°
2026-05-05 16:45 44.94200 13.89765 31025 ft 429 kts 305°
2026-05-05 16:46 44.96053 13.86403 31384 ft 428 kts 304°
2026-05-05 16:46 44.97858 13.83125 31719 ft 429 kts 304°
2026-05-05 16:46 44.99687 13.79798 32089 ft 428 kts 304°
2026-05-05 16:46 45.01508 13.76483 32500 ft 426 kts 304°
2026-05-05 16:47 45.03318 13.73184 32904 ft 424 kts 304°
2026-05-05 16:47 45.05121 13.69894 33268 ft 423 kts 304°
2026-05-05 16:47 45.06923 13.66601 33625 ft 423 kts 304°
2026-05-05 16:47 45.08720 13.63314 33994 ft 421 kts 304°
2026-05-05 16:48 45.10509 13.60038 34290 ft 420 kts 304°
2026-05-05 16:48 45.12296 13.56762 34564 ft 420 kts 304°
2026-05-05 16:48 45.14081 13.53483 34806 ft 421 kts 303°
2026-05-05 16:48 45.15873 13.50190 35035 ft 422 kts 303°
2026-05-05 16:49 45.17661 13.46902 35339 ft 421 kts 304°
2026-05-05 16:49 45.19467 13.43640 35635 ft 420 kts 306°
2026-05-05 16:49 45.21366 13.40488 35913 ft 420 kts 307°
2026-05-05 16:49 45.23313 13.37373 35977 ft 425 kts 308°
2026-05-05 16:50 45.27271 13.31040 35988 ft 432 kts 307°
2026-05-05 16:50 45.31216 13.24623 35990 ft 431 kts 307°
2026-05-05 16:51 45.35204 13.18257 35982 ft 431 kts 308°
2026-05-05 16:51 45.39202 13.11903 35979 ft 430 kts 307°
2026-05-05 16:52 45.43147 13.05508 35991 ft 430 kts 307°
2026-05-05 16:52 45.47076 12.99082 35983 ft 430 kts 307°
2026-05-05 16:53 45.50998 12.92663 35996 ft 430 kts 307°
2026-05-05 16:53 45.54896 12.86275 35991 ft 430 kts 307°
2026-05-05 16:54 45.58821 12.79831 35989 ft 430 kts 307°
2026-05-05 16:54 45.62742 12.73379 35998 ft 430 kts 307°
2026-05-05 16:55 45.66667 12.66905 36000 ft 431 kts 307°
2026-05-05 16:55 45.70592 12.60417 36014 ft 431 kts 307°
2026-05-05 16:56 45.74515 12.53915 36006 ft 432 kts 306°
2026-05-05 16:56 45.78443 12.47392 36002 ft 432 kts 306°
2026-05-05 16:57 45.82365 12.40860 36004 ft 432 kts 306°
2026-05-05 16:57 45.86286 12.34317 36006 ft 432 kts 306°
2026-05-05 16:58 45.90203 12.27765 36011 ft 433 kts 306°
2026-05-05 16:58 45.94098 12.21246 36015 ft 433 kts 306°
2026-05-05 16:59 45.98044 12.14630 36015 ft 433 kts 306°
2026-05-05 16:59 46.02630 12.08984 36007 ft 445 kts 326°
2026-05-05 17:00 46.08171 12.04795 36008 ft 447 kts 328°
2026-05-05 17:00 46.13672 12.00730 36005 ft 447 kts 328°
2026-05-05 17:01 46.19197 11.96582 36004 ft 448 kts 327°
2026-05-05 17:01 46.24711 11.92391 35993 ft 448 kts 327°
2026-05-05 17:02 46.30213 11.88188 36001 ft 447 kts 327°
2026-05-05 17:02 46.35704 11.83980 35992 ft 447 kts 327°
2026-05-05 17:03 46.38452 11.81871 35758 ft 450 kts 327°
2026-05-05 17:03 46.41253 11.79715 34987 ft 456 kts 327°
2026-05-05 17:03 46.44057 11.77559 34292 ft 458 kts 327°
2026-05-05 17:03 46.46875 11.75391 33659 ft 458 kts 327°
2026-05-05 17:04 46.49689 11.73224 32968 ft 459 kts 327°
2026-05-05 17:04 46.52509 11.71049 32256 ft 459 kts 327°
2026-05-05 17:04 46.55332 11.68869 31571 ft 459 kts 327°
2026-05-05 17:04 46.58155 11.66687 30872 ft 460 kts 327°
2026-05-05 17:05 46.60978 11.64502 30256 ft 460 kts 327°
2026-05-05 17:05 46.63789 11.62325 29665 ft 455 kts 327°
2026-05-05 17:05 46.66558 11.60175 29191 ft 447 kts 327°
2026-05-05 17:05 46.69291 11.58057 28615 ft 442 kts 327°
2026-05-05 17:06 46.71985 11.55968 28130 ft 436 kts 327°
2026-05-05 17:06 46.74648 11.53899 27640 ft 432 kts 327°
2026-05-05 17:06 46.77287 11.51840 27121 ft 428 kts 327°
2026-05-05 17:06 46.79899 11.49800 26627 ft 423 kts 327°
2026-05-05 17:07 46.82478 11.47783 26162 ft 419 kts 327°
2026-05-05 17:07 46.85043 11.45775 25689 ft 417 kts 326°
2026-05-05 17:07 46.87594 11.43775 25197 ft 415 kts 326°
2026-05-05 17:07 46.90129 11.41787 24710 ft 412 kts 326°
2026-05-05 17:08 46.92622 11.39829 24222 ft 411 kts 326°
2026-05-05 17:08 46.95133 11.37856 23747 ft 409 kts 326°
2026-05-05 17:08 46.97637 11.35886 23242 ft 408 kts 327°
2026-05-05 17:08 47.00139 11.33915 22658 ft 407 kts 327°
2026-05-05 17:09 47.02625 11.31956 22177 ft 404 kts 327°
2026-05-05 17:09 47.05090 11.30012 21701 ft 401 kts 327°
2026-05-05 17:09 47.07534 11.28085 21227 ft 397 kts 327°
2026-05-05 17:09 47.09951 11.26176 20753 ft 393 kts 327°
2026-05-05 17:10 47.12347 11.24278 20300 ft 390 kts 327°
2026-05-05 17:10 47.14724 11.22394 19848 ft 387 kts 327°
2026-05-05 17:10 47.17091 11.20516 19380 ft 385 kts 327°
2026-05-05 17:10 47.19437 11.18652 18943 ft 382 kts 327°
2026-05-05 17:11 47.21767 11.16800 18497 ft 380 kts 327°
2026-05-05 17:11 47.24087 11.14955 18022 ft 378 kts 327°
2026-05-05 17:11 47.26388 11.13123 17465 ft 373 kts 328°
2026-05-05 17:11 47.28653 11.11322 17082 ft 368 kts 328°
2026-05-05 17:12 47.30896 11.09532 16610 ft 366 kts 328°
2026-05-05 17:12 47.33129 11.07746 16178 ft 364 kts 328°
2026-05-05 17:12 47.35353 11.05967 15754 ft 363 kts 328°
2026-05-05 17:12 47.37568 11.04193 15308 ft 361 kts 328°
2026-05-05 17:13 47.39766 11.02433 14865 ft 358 kts 328°
2026-05-05 17:13 47.41942 11.00688 14479 ft 355 kts 328°
2026-05-05 17:13 47.44113 10.98947 14008 ft 355 kts 328°
2026-05-05 17:13 47.46274 10.97211 13604 ft 352 kts 328°
2026-05-05 17:14 47.48422 10.95483 13141 ft 351 kts 328°
2026-05-05 17:14 47.50561 10.93761 12670 ft 349 kts 328°
2026-05-05 17:14 47.52685 10.92049 12264 ft 346 kts 328°
2026-05-05 17:14 47.54797 10.90346 11856 ft 345 kts 328°
2026-05-05 17:15 47.56902 10.88648 11420 ft 344 kts 328°
2026-05-05 17:15 47.58996 10.86957 10984 ft 342 kts 328°
2026-05-05 17:15 47.61071 10.85283 10665 ft 337 kts 328°
2026-05-05 17:15 47.63096 10.83646 10531 ft 326 kts 328°
2026-05-05 17:16 47.65059 10.82057 10385 ft 318 kts 328°
2026-05-05 17:16 47.66974 10.80506 10242 ft 310 kts 328°
2026-05-05 17:16 47.68815 10.79014 10123 ft 302 kts 328°
2026-05-05 17:16 47.70636 10.77535 9984 ft 294 kts 328°
2026-05-05 17:17 47.72409 10.76094 9861 ft 287 kts 328°
2026-05-05 17:17 47.74176 10.74656 9594 ft 285 kts 328°
2026-05-05 17:17 47.75886 10.73262 9316 ft 283 kts 328°
2026-05-05 17:17 47.77607 10.71859 9038 ft 281 kts 328°
2026-05-05 17:18 47.79315 10.70465 8770 ft 279 kts 328°
2026-05-05 17:18 47.80465 10.69527 8566 ft 278 kts 328°
2026-05-05 17:18 47.82704 10.67699 8202 ft 276 kts 328°
2026-05-05 17:18 47.83840 10.66770 8018 ft 275 kts 328°
2026-05-05 17:19 47.86059 10.64956 7658 ft 274 kts 328°
2026-05-05 17:19 47.87183 10.64037 7476 ft 273 kts 328°
2026-05-05 17:19 47.88843 10.62677 7207 ft 272 kts 328°
2026-05-05 17:19 47.90473 10.61341 6949 ft 270 kts 328°
2026-05-05 17:20 47.92115 10.59995 6683 ft 269 kts 328°
2026-05-05 17:20 47.93753 10.58652 6418 ft 268 kts 328°
2026-05-05 17:20 47.95385 10.57313 6165 ft 266 kts 328°
2026-05-05 17:20 47.96981 10.56003 6043 ft 259 kts 328°
2026-05-05 17:21 47.98536 10.54727 5924 ft 252 kts 328°
2026-05-05 17:21 48.00043 10.53462 5804 ft 245 kts 326°
2026-05-05 17:21 48.01490 10.52198 5696 ft 237 kts 326°
2026-05-05 17:22 48.04254 10.49764 5381 ft 228 kts 326°
2026-05-05 17:22 48.05595 10.48589 5348 ft 220 kts 326°
2026-05-05 17:22 48.06798 10.47186 5117 ft 218 kts 298°
2026-05-05 17:22 48.07134 10.45073 5037 ft 212 kts 259°
2026-05-05 17:23 48.06511 10.43121 4804 ft 208 kts 236°
2026-05-05 17:23 48.05742 10.41307 4532 ft 205 kts 240°
2026-05-05 17:23 48.05030 10.39489 4259 ft 200 kts 240°
2026-05-05 17:23 48.04333 10.37722 3994 ft 194 kts 240°
2026-05-05 17:24 48.03662 10.36031 3736 ft 183 kts 241°
2026-05-05 17:24 48.03036 10.34454 3488 ft 171 kts 241°
2026-05-05 17:24 48.02448 10.32974 3293 ft 159 kts 242°
2026-05-05 17:24 48.01896 10.31579 3073 ft 156 kts 241°
2026-05-05 17:25 48.01351 10.30203 2868 ft 152 kts 241°
2026-05-05 17:25 48.00999 10.29308 2727 ft 151 kts 243°
2026-05-05 17:25 48.00270 10.27462 2426 ft 157 kts 241°
2026-05-05 17:25 47.99710 10.26042 2216 ft 161 kts 240°
2026-05-05 17:26 47.99149 10.24630 2072 ft 153 kts 240°
2026-05-05 17:26 47.98686 10.23459 2080 ft 99 kts 240°
2026-05-05 17:26 47.98447 10.22857 2085 ft 38 kts 239°
2026-05-05 17:26 47.98361 10.22632 2088 ft 16 kts 246°
2026-05-05 17:27 47.98428 10.22544 2088 ft 16 kts 25°
2026-05-05 17:27 47.98492 10.22673 2084 ft 16 kts 48°
2026-05-05 17:27 47.98603 10.22711 2078 ft 18 kts
2026-05-05 17:27 47.98692 10.22751 2075 ft 12 kts 59°
2026-05-05 17:28 47.98710 10.22873 2077 ft 12 kts 80°
2026-05-05 17:28 47.98754 10.22973 2077 ft 12 kts 60°
2026-05-05 17:28 47.98781 10.23084 2076 ft 11 kts 71°
2026-05-05 17:28 47.98807 10.23193 2075 ft 11 kts 66°
2026-05-05 17:29 47.98853 10.23219 2076 ft 3 kts 10°
2026-05-05 17:29 47.98866 10.23236 2073 ft 2 kts 46°
2026-05-05 17:29 47.98868 10.23239 2073 ft 0 kts 46°